RH
100 100 100 100 100 100 99 99 98 97 96 94 93 91 89 88 88 86 81 77 73 69 66 63 60 57 55 53 52 51 48 46 44 41 40 38 36 35 34 33 33 32 31 30 29 27 26 24 23 22 21 21 21 19 18 18 17 17 16 15 14 13 12 12 11 12 14 16 17 15 14 14 15 16 16 16 16 16 15 15 15 16 17 18 19
100 100 100 100 101 101 100 100 98 97 98 98 96 94 93 91 88 83 78 75 71 68 64 61 58 56 55 54 52 50 48 46 43 41 40 39 37 36 35 34 34 33 31 30 28 26 24 22 21 20 19 19 17 16 16 15 14 13 12 12 11 10 10 9 8 9 10 13 15 13 11 10 11 12 12 12 12 13 13 12 12 12 12 13 14
99 100 100 100 100 100 100 100 99 98 97 97 95 92 89 85 81 78 75 72 69 65 62 59 57 55 53 51 48 46 45 43 42 40 38 37 36 34 33 32 31 30 28 27 24 22 20 19 19 19 19 18 17 16 16 15 14 13 12 12 11 10 9 8 8 8 8 10 11 11 9 8 9 9 9 9 9 10 10 10 10 10 10 11 11
102 102 100 99 100 100 99 99 97 94 91 88 85 83 81 79 77 74 71 68 65 61 59 57 55 53 51 49 47 45 43 41 39 36 34 33 32 31 30 30 30 29 28 26 23 21 20 20 20 19 18 18 17 15 14 13 12 11 10 10 9 8 8 7 7 6 7 7 8 8 7 6 6 6 7 7 6 7 7 7 7 8 8 8 8
98 98 96 95 95 94 93 91 89 85 83 81 80 80 78 76 74 70 67 65 63 61 59 57 56 54 51 48 46 43 41 38 36 34 33 33 33 32 32 32 31 29 26 22 19 18 17 16 15 14 13 13 12 11 10 9 9 8 8 8 7 7 7 7 7 6 6 6 7 7 7 6 6 6 6 6 6 6 6 6 6 6 6 6 6
90 89 87 86 85 85 84 84 83 83 82 81 80 78 76 74 72 70 68 67 64 61 59 57 55 53 50 47 45 43 41 39 37 35 33 31 29 27 26 25 23 20 17 15 14 13 13 12 12 11 11 11 10 10 9 9 8 8 8 7 7 7 7 6 6 6 6 6 6 6 6 6 5 5 5 5 5 5 5 5 5 5 5 5 5
84 84 83 83 83 82 83 83 83 83 81 80 78 76 75 72 70 68 65 63 61 59 57 55 53 52 49 46 43 39 36 32 29 26 23 21 20 19 19 19 17 16 14 14 14 14 13 12 11 11 10 10 10 9 9 9 8 8 7 7 7 6 7 6 6 6 5 5 5 5 5 5 5 5 5 5 5 5 4 5 4 5 5 4 5
81 81 81 81 82 81 81 81 80 79 78 76 75 73 71 69 67 65 63 62 60 58 56 53 48 44 39 35 31 27 24 22 20 19 19 18 19 19 20 19 18 16 15 15 15 14 13 12 12 11 10 10 10 9 9 9 8 8 7 7 7 6 7 6 6 6 5 5 5 5 5 5 5 5 4 4 5 4 4 4 4 4 5 5 5
81 81 81 81 82 81 81 80 79 78 77 76 75 73 71 69 66 63 60 56 52 47 43 38 33 30 27 25 23 22 22 22 21 20 20 20 20 21 21 19 17 16 16 17 16 14 13 13 12 12 11 10 10 9 9 9 8 9 8 8 8 7 6 6 6 5 5 5 4 4 4 5 4 4 4 4 4 4 4 4 4 4 4 5 5
89 89 88 88 87 86 84 82 80 77 74 71 68 64 60 55 51 46 41 37 34 31 29 28 27 26 25 24 24 23 23 22 22 21 21 21 21 22 21 19 17 17 17 16 15 14 13 13 12 12 11 10 10 9 9 9 8 8 8 7 7 6 6 6 6 5 5 5 5 4 4 5 4 4 4 4 4 4 4 4 4 4 4 4 5
79 78 78 76 74 71 67 63 60 56 51 47 43 40 37 34 32 31 29 28 28 28 28 27 26 25 24 23 22 22 22 21 21 21 20 19 20 20 19 17 16 16 16 15 14 13 12 12 11 11 10 9 9 8 8 8 7 7 7 6 6 6 6 6 5 5 5 5 5 5 5 5 4 4 4 4 4 4 4 4 4 4 4 4 4
50 49 48 46 44 42 40 37 35 34 32 31 30 29 29 28 28 28 27 27 26 25 25 24 23 22 21 21 21 21 21 20 19 19 18 17 18 17 16 15 15 15 14 13 12 11 11 11 10 9 8 8 7 7 7 7 7 7 6 6 6 5 5 5 5 5 5 5 4 5 4 4 4 4 4 3 3 3 3 3 3 3 3 3 3
34 33 32 32 31 30 30 29 29 29 28 28 28 27 27 26 25 24 23 23 22 22 22 21 21 21 20 20 20 19 19 18 17 17 16 16 15 15 14 13 13 13 12 11 10 10 9 9 9 8 8 7 7 7 7 7 6 6 6 5 5 5 5 4 4 4 4 4 4 4 4 3 3 3 3 3 3 3 3 3 3 3 3 3 3
30 30 29 29 29 28 28 27 27 26 26 25 24 23 22 22 21 21 21 21 22 22 22 22 21 21 20 19 19 19 18 18 17 16 15 14 13 12 11 11 11 11 10 10 10 9 9 9 8 8 7 7 7 6 6 6 6 5 5 5 4 4 4 4 3 3 3 3 3 3 3 3 3 2 2 2 2 2 2 2 3 3 2 2 2
28 28 27 26 26 25 24 24 23 22 22 21 21 21 21 21 21 22 22 22 22 22 22 22 21 21 20 19 19 18 17 16 15 14 13 12 12 11 11 11 11 11 11 10 9 9 9 8 7 7 6 6 6 5 5 5 5 5 4 4 4 4 3 3 3 3 3 2 2 2 2 2 2 2 2 2 2 2 2 2 2 2 2 2 2
25 24 23 23 22 22 22 21 21 21 21 22 22 22 22 23 22 23 22 22 22 22 22 22 21 21 19 18 17 16 14 14 13 13 13 13 13 12 11 11 11 10 9 9 9 8 7 7 6 6 5 5 5 5 4 4 4 4 4 3 4 3 3 3 3 2 2 2 2 2 2 2 2 2 2 2 2 2 2 2 2 2 2 2 2
23 23 23 23 23 23 23 23 24 24 24 24 24 24 24 24 23 23 23 23 23 23 22 21 20 18 17 16 15 15 15 14 14 13 13 13 12 11 10 10 9 9 8 7 7 6 6 5 5 5 4 4 4 4 3 3 3 3 3 3 3 3 3 3 3 2 2 2 2 2 2 2 2 2 2 2 2 2 2 2 2 2 2 2 2
25 25 26 26 26 27 27 27 27 26 26 25 25 25 25 25 25 25 24 24 23 22 21 19 19 18 17 17 16 16 16 15 14 13 12 11 11 10 9 8 7 7 6 6 5 5 4 4 4 4 3 3 3 3 3 3 3 3 3 3 3 3 3 3 3 2 2 2 2 2 2 2 2 2 2 2 2 2 2 2 2 2 2 2 2
30 30 31 31 30 30 29 29 28 27 27 26 26 26 26 26 26 25 24 22 21 20 20 20 20 19 19 18 16 15 14 13 11 11 9 9 8 7 6 6 6 5 5 5 4 4 4 4 3 3 3 3 3 3 3 3 3 3 3 3 3 3 3 3 3 2 2 2 2 2 2 2 2 2 2 2 2 2 2 2 2 2 2 2 2
34 34 34 32 31 30 29 28 28 28 28 28 28 28 27 26 25 23 22 22 21 21 21 20 19 18 16 15 13 12 11 9 8 7 7 6 6 6 5 5 5 5 5 5 5 5 4 4 4 4 4 4 3 3 3 3 3 3 3 3 3 3 3 3 3 3 3 3 2 2 2 2 2 2 2 2 2 2 2 2 2 2 2 2 2
35 34 33 32 31 30 30 30 30 30 29 29 27 26 25 25 24 24 23 22 21 19 18 16 15 13 11 10 9 8 7 6 6 6 5 5 6 6 7 7 7 7 7 6 7 6 6 5 5 4 4 4 4 4 4 3 3 3 3 3 3 3 3 3 3 3 3 3 3 2 2 2 2 2 2 2 2 2 2 2 2 2 2 2 2
33 33 33 33 33 33 32 31 30 29 27 26 26 25 25 24 23 22 20 18 16 14 12 11 9 8 8 7 7 7 7 7 7 7 7 8 8 8 9 9 9 8 8 8 7 7 6 6 5 5 5 4 4 4 4 4 3 3 3 3 3 3 3 3 3 3 3 3 3 3 2 2 2 2 2 2 2 2 2 2 2 2 2 2 2
36 35 35 34 33 32 30 29 28 27 26 25 24 23 22 20 18 15 13 11 10 9 8 7 7 8 9 9 10 10 11 11 11 11 10 10 9 9 9 9 9 9 9 8 8 7 7 6 6 5 5 4 4 4 4 4 3 3 3 3 3 3 3 3 3 3 3 3 3 3 3 3 2 2 2 2 2 2 2 2 2 2 2 2 2
36 34 33 32 31 30 29 28 27 26 24 21 19 17 15 13 11 9 8 8 8 8 9 10 12 13 13 14 14 14 13 13 12 11 11 10 9 9 9 9 9 9 8 8 8 7 7 7 6 5 5 4 4 4 3 3 3 3 3 3 3 3 3 3 3 3 3 3 2 2 2 2 2 2 2 2 2 2 2 2 2 2 2 2 2
35 34 32 31 30 28 27 24 22 19 17 14 12 11 9 9 9 9 10 11 12 14 15 15 15 15 15 15 14 14 13 12 12 11 11 10 9 9 9 9 9 9 9 9 8 8 7 6 6 5 4 4 4 3 3 3 3 3 3 3 3 3 3 3 3 3 3 3 2 2 2 2 2 2 2 2 2 2 2 2 2 2 2 2 2
35 32 29 27 24 21 19 17 15 13 12 11 10 11 11 13 14 15 16 17 17 17 16 16 16 15 15 14 14 14 13 12 12 11 11 10 10 9 9 9 9 9 9 8 7 6 6 5 5 4 4 4 4 4 3 3 3 3 3 3 3 3 3 3 3 3 3 3 2 2 2 2 2 2 2 2 2 2 2 2 2 2 2 2 2
28 24 22 19 17 15 14 14 13 14 14 15 17 18 19 19 19 19 19 18 17 17 16 16 16 15 15 14 14 13 13 12 12 11 11 11 10 10 9 9 8 8 7 6 6 5 5 5 5 5 4 4 4 4 4 4 3 3 3 3 3 3 3 3 3 3 3 3 3 3 3 2 2 2 2 2 2 2 2 2 2 2 2 2 2
21 19 18 17 17 17 18 19 20 21 22 22 22 21 20 19 19 18 18 17 17 17 17 16 16 15 14 14 13 13 12 12 12 12 12 11 10 9 8 7 6 6 5 5 5 5 5 5 5 5 5 5 4 4 4 4 4 3 3 3 3 3 3 3 3 3 3 3 3 3 3 3 3 3 3 3 2 3 2 2 2 2 2 2 2
21 21 22 23 24 25 26 26 25 24 23 21 20 19 19 19 19 19 19 19 18 17 17 16 15 14 13 13 13 12 12 13 13 12 11 10 8 7 6 5 5 5 5 5 5 5 5 5 5 4 4 4 4 4 4 4 3 3 3 3 3 3 3 3 3 3 3 3 3 3 3 3 3 3 3 3 3 3 3 3 2 2 2 2 2
28 29 29 29 28 27 26 24 23 22 21 20 20 20 21 21 21 20 19 18 17 16 15 14 13 13 13 12 13 13 13 13 12 11 9 8 7 6 6 6 5 5 5 5 5 5 5 4 4 4 4 4 4 4 4 4 3 3 3 3 4 3 3 3 3 3 3 3 3 3 3 3 3 3 3 3 3 3 3 3 2 2 2 2 2
32 30 29 27 26 25 24 24 23 23 23 23 23 23 22 21 20 19 17 16 15 14 13 13 13 13 13 12 13 13 12 11 9 8 7 7 7 7 6 6 6 5 5 5 5 5 5 4 4 4 4 4 4 4 4 4 4 3 4 3 3 4 4 4 4 4 3 4 3 3 3 3 3 3 3 3 3 3 3 3 3 2 2 2 2
28 27 27 26 26 26 26 26 26 26 25 25 23 22 20 18 17 16 15 14 13 13 12 12 12 12 12 12 11 11 9 8 8 7 7 7 7 7 7 6 6 5 5 5 5 5 5 4 4 4 4 4 4 4 4 4 4 4 4 4 4 4 4 4 4 4 4 4 4 3 3 3 3 3 3 3 3 3 3 3 2 3 3 2 2
28 28 29 29 29 29 28 27 26 25 24 22 20 19 18 16 15 15 14 13 12 12 12 12 12 12 12 11 10 8 7 7 7 7 7 7 7 7 6 6 6 5 5 5 5 5 5 4 4 4 4 4 4 4 4 4 4 4 5 4 4 4 4 4 4 4 4 4 4 4 3 3 3 3 3 3 3 3 3 3 3 3 3 2 2
29 30 30 30 29 28 27 25 24 22 20 19 18 17 16 15 14 14 13 13 12 12 12 11 11 11 10 9 8 7 6 7 7 7 7 6 6 6 6 6 6 5 5 5 5 5 5 5 4 5 5 5 5 5 5 5 5 5 5 5 5 4 4 4 4 4 4 4 4 4 3 3 3 3 3 3 3 3 3 3 3 3 3 3 3
30 30 30 29 27 25 24 22 20 19 18 16 15 15 14 14 13 13 13 13 13 13 13 12 11 10 9 7 7 7 7 7 6 6 6 6 6 5 5 5 5 5 5 5 5 5 5 5 5 5 5 5 6 6 6 5 5 5 5 5 4 4 4 4 4 4 4 4 4 4 4 3 3 3 3 3 3 3 3 3 3 3 3 3 3
29 28 27 25 24 22 20 19 17 16 15 14 14 13 13 13 12 12 12 12 12 12 12 12 10 9 9 8 8 8 7 7 6 6 6 6 5 5 5 5 5 5 6 6 6 6 6 6 5 5 5 6 6 6 6 5 5 5 5 5 5 4 4 4 4 4 4 4 4 4 4 4 4 3 3 3 3 3 3 3 3 3 3 3 3
26 25 23 21 20 19 17 16 15 14 13 13 12 12 12 12 12 12 12 12 12 12 11 10 9 9 9 9 9 9 8 7 7 6 6 6 5 5 5 5 5 6 6 6 6 6 6 6 6 6 6 6 6 6 6 5 5 5 5 5 5 4 4 4 4 4 4 4 4 4 4 4 4 4 4 4 3 3 3 3 3 3 3 3 3
22 20 19 17 16 15 14 14 13 12 12 12 11 11 11 11 11 12 12 12 12 11 10 10 9 9 9 9 9 9 8 8 7 7 6 6 6 6 6 6 6 6 6 6 7 7 7 7 6 6 6 6 6 6 6 6 5 5 5 5 5 4 4 4 4 4 4 4 4 4 4 4 4 4 4 3 3 3 3 3 3 3 3 3 3
17 16 15 14 14 13 12 12 12 11 11 11 11 11 11 11 12 12 12 12 11 10 10 10 10 10 9 9 8 8 8 8 8 8 7 7 7 7 6 7 6 6 7 7 7 7 8 7 7 7 6 6 6 6 6 6 6 6 5 5 5 4 4 4 4 5 5 5 5 5 4 4 4 4 4 4 4 4 3 3 3 3 3 3 3
14 13 13 12 12 12 11 11 11 11 11 11 11 11 11 12 12 12 12 11 10 10 10 10 10 9 9 8 8 7 7 8 8 8 8 8 7 7 7 7 7 8 8 8 8 8 8 8 8 7 7 6 6 6 6 6 6 6 5 5 5 5 5 5 5 5 5 5 5 5 4 4 4 4 4 4 4 4 4 4 4 4 4 4 4
12 12 12 11 11 11 11 11 11 11 11 11 11 11 11 12 12 12 11 11 11 11 10 10 10 9 8 8 8 7 7 7 8 8 8 8 8 8 8 8 8 8 8 9 9 9 9 9 8 7 7 6 6 6 6 6 6 6 5 5 5 5 5 5 5 5 5 5 5 5 5 4 4 4 4 4 4 4 4 4 4 4 4 4 4
12 11 11 11 11 11 11 11 11 11 11 11 11 12 12 12 12 11 11 11 11 11 10 10 9 9 8 8 8 8 7 7 7 7 8 8 8 8 8 8 9 9 9 9 9 9 9 9 8 7 7 6 7 7 7 7 6 6 6 6 5 5 5 5 5 5 5 5 5 5 5 5 5 4 4 4 4 5 5 5 5 5 5 4 5
12 11 11 11 11 11 11 11 11 11 11 12 12 12 12 12 11 11 11 12 11 11 10 10 9 9 9 9 8 8 8 8 8 8 8 8 8 9 9 9 9 9 9 9 9 9 9 8 8 7 7 7 7 7 7 6 6 6 6 6 6 6 6 6 5 6 6 6 5 5 5 5 5 5 5 5 5 5 5 6 5 5 5 5 5
12 12 11 11 11 11 11 11 11 12 12 12 13 12 12 11 12 12 12 11 11 10 10 10 9 9 9 9 9 9 9 8 8 8 9 9 9 9 9 9 9 9 9 9 9 9 9 8 7 7 7 7 7 7 7 6 6 6 6 6 6 6 6 6 6 6 6 6 6 6 6 6 6 5 5 6 6 6 6 6 6 6 6 5 5
12 12 12 12 12 12 12 12 12 12 13 12 12 12 12 12 12 12 12 11 11 10 10 10 10 10 10 9 9 9 9 9 9 9 10 10 10 9 9 9 9 9 9 9 9 9 8 8 7 7 7 7 8 8 7 7 6 6 6 7 7 6 6 6 6 6 7 6 6 6 6 6 6 6 6 6 6 7 6 6 6 6 6 5 5
13 12 12 12 12 12 12 12 12 13 13 12 12 12 13 13 13 12 11 11 11 11 11 11 10 10 10 10 10 10 10 10 10 10 10 10 10 9 9 9 9 9 9 9 9 9 8 8 7 7 7 8 8 8 7 7 7 6 7 7 7 6 7 7 7 7 7 7 7 7 7 7 7 7 7 7 7 7 7 7 7 6 6 6 6
13 13 13 13 13 13 13 13 13 13 12 12 13 13 14 13 12 12 11 11 11 11 11 11 11 10 10 10 10 10 11 11 11 11 10 10 9 9 9 9 9 9 9 9 9 9 8 8 7 7 8 9 9 8 7 7 7 7 7 7 7 7 7 7 8 8 8 8 8 8 8 8 7 7 8 8 8 8 8 7 7 7 7 6 6
13 13 13 13 13 13 13 13 13 13 13 14 14 14 14 13 12 12 12 12 12 12 11 11 10 10 10 11 11 12 12 11 11 10 10 10 9 9 9 9 9 9 10 10 9 9 9 8 8 8 9 9 8 8 8 8 8 8 8 7 7 8 8 8 8 9 9 9 9 8 8 8 8 8 8 8 8 8 8 8 8 7 7 7 7
13 13 14 14 14 14 13 13 13 14 15 15 15 14 14 13 13 12 12 12 12 12 12 11 11 11 11 11 12 12 12 12 11 10 10 10 9 9 9 9 10 10 10 10 9 9 9 9 9 9 9 9 8 8 9 9 9 9 8 8 8 9 9 9 9 9 10 10 9 9 9 9 9 9 9 9 9 9 8 8 8 8 8 8 7
14 14 14 14 14 14 14 14 15 16 16 16 15 14 14 14 14 13 14 13 13 12 12 12 12 12 13 13 13 13 13 12 11 10 10 10 10 10 10 10 10 10 10 9 10 10 9 9 10 10 9 9 8 9 9 10 10 9 9 10 10 10 10 10 10 10 10 10 9 9 9 9 9 9 9 9 9 9 9 9 9 9 9 8 8
15 15 15 14 14 14 15 16 17 17 16 15 14 14 14 14 15 15 14 14 14 13 13 13 13 14 14 14 14 13 13 12 11 11 10 10 10 10 10 10 10 10 9 9 10 10 10 10 10 10 9 9 9 10 10 10 10 10 10 11 11 11 10 11 11 10 10 10 9 9 9 10 10 10 10 10 10 10 10 10 10 9 9 9 8
Wind_Speed
129 129 130 131 131 132 132 133 133 134 134 135 135 136 136 137 137 137 137 136 135 133 132 132 131 131 131 131 131 131 132 132 133 133 133 134 134 135 135 136 136 137 137 138 138 138 139 139 139 139 139 139 140 140 140 140 140 141 141 141 141 141 141 141 139 137 136 137 138 137 138 139 139 139 141 142 142 143 144 145 145 145 146 146 146
132 133 134 135 135 136 136 137 137 138 138 139 139 140 140 140 139 138 137 135 134 133 133 132 132 132 132 132 133 133 134 134 135 135 136 136 137 137 137 138 138 139 139 140 140 141 140 140 140 140 140 140 140 140 140 140 140 140 140 140 140 140 140 140 139 137 136 136 137 137 138 138 138 138 139 140 140 141 142 143 144 144 144 144 144
136 137 138 139 140 140 140 141 141 141 141 141 140 140 139 139 137 136 135 134 134 134 133 133 133 134 134 135 135 135 136 136 136 137 137 137 138 138 139 139 140 140 141 141 141 141 141 140 140 140 140 140 140 140 140 140 140 140 140 140 139 139 140 139 139 138 136 135 136 137 137 137 138 137 138 139 139 139 139 141 142 142 142 143 142
134 135 136 137 138 139 139 139 139 138 138 137 137 136 136 135 135 134 134 134 134 134 134 134 135 135 136 136 136 136 137 137 138 138 138 138 138 139 139 139 140 140 141 141 141 140 140 139 139 139 139 140 140 140 140 140 140 140 139 139 139 139 139 139 139 139 137 136 135 136 137 137 137 138 138 138 139 139 138 139 140 140 140 141 141
127 128 129 130 131 131 132 132 132 132 132 132 132 132 133 133 133 134 134 134 135 135 135 135 136 136 137 137 137 138 138 138 138 138 138 138 138 138 138 139 140 140 141 141 140 139 139 139 139 139 139 139 139 139 139 139 139 138 138 138 138 138 138 138 138 138 137 135 134 134 135 136 136 137 137 137 137 137 137 137 137 138 138 138 138
122 123 123 124 125 126 127 128 128 129 129 130 131 131 132 133 133 134 134 135 135 135 136 136 137 137 137 137 137 137 137 137 137 137 137 137 137 137 137 138 139 140 140 140 139 139 138 138 138 138 138 137 137 137 137 137 137 136 136 136 135 135 135 136 136 136 135 134 133 132 132 133 134 135 135 136 136 135 135 135 135 136 136 135 135
120 121 122 123 124 125 126 126 127 128 129 130 130 131 132 132 133 134 134 135 135 135 135 135 135 136 135 135 135 135 136 136 136 136 136 135 135 135 136 137 138 138 138 137 137 137 137 136 136 136 136 135 135 135 135 135 134 134 134 133 133 133 134 134 134 134 134 133 132 131 131 131 132 133 133 134 134 134 133 133 133 133 133 133 133
119 120 121 122 123 124 125 125 126 127 128 129 130 130 131 132 132 133 133 133 133 133 133 133 133 133 133 134 134 134 134 134 134 134 133 133 133 134 135 136 137 137 136 136 136 136 136 135 135 135 134 134 134 133 133 133 133 133 133 133 133 133 133 133 134 133 133 132 131 130 130 129 130 131 131 132 132 132 132 131 131 129 130 131 131
117 118 119 120 121 122 123 124 125 126 127 127 128 128 129 129 129 129 130 130 130 130 130 131 131 131 131 131 131 132 132 132 132 132 132 132 133 134 135 136 136 135 135 135 135 135 135 135 134 134 134 134 133 133 132 132 132 132 132 133 133 133 133 133 133 132 131 131 130 129 129 128 129 129 129 130 130 130 129 129 129 127 127 127 128
114 116 117 118 119 120 121 121 122 123 123 124 124 125 125 126 126 126 127 127 127 127 128 128 129 129 130 130 130 131 131 132 132 132 132 132 132 133 134 135 134 133 133 133 133 133 133 133 133 133 133 132 132 132 131 131 131 130 131 131 131 131 131 131 131 130 130 129 128 128 128 127 127 128 128 128 128 128 127 126 126 126 125 125 124
111 112 113 114 115 116 117 118 118 119 120 120 121 121 122 122 123 123 123 124 124 125 126 127 128 129 129 129 130 130 130 130 130 130 130 130 129 130 131 132 131 131 131 131 131 131 131 131 131 130 130 130 129 129 128 128 128 128 128 129 129 129 129 129 129 128 128 127 127 127 127 127 126 126 127 126 126 126 126 125 125 124 123 123 122
108 109 110 111 112 113 113 114 115 116 117 117 118 119 119 120 121 122 122 123 124 124 125 126 126 127 127 127 127 127 127 127 127 127 127 126 126 127 128 128 128 128 128 127 127 127 127 127 127 127 127 127 126 125 125 125 125 126 126 127 127 127 127 127 126 126 125 125 125 125 125 125 125 125 125 125 125 124 124 124 124 123 123 122 122
106 107 108 109 110 111 112 112 113 114 115 116 117 118 119 119 120 121 121 121 122 122 122 123 123 124 124 124 124 124 124 124 124 124 124 124 124 125 125 124 124 124 124 124 124 123 123 124 124 124 124 124 123 123 123 123 123 124 125 125 126 126 126 126 125 124 123 123 122 122 123 123 122 122 123 123 123 122 122 122 123 123 122 122 121
106 107 108 109 110 111 111 112 113 114 115 115 116 117 117 117 118 118 118 118 118 119 119 120 120 121 121 121 121 121 121 121 121 121 121 121 122 122 122 121 121 121 121 121 121 121 121 122 122 122 122 122 122 121 122 122 122 123 123 124 125 125 125 124 123 123 122 121 120 119 120 120 120 119 120 120 120 119 119 119 120 121 121 120 119
106 107 108 108 109 109 110 111 111 112 112 113 113 114 114 114 114 115 115 116 116 117 117 118 118 119 120 120 120 119 119 119 119 118 118 118 119 120 119 119 119 120 120 119 120 120 120 121 121 121 121 121 120 120 120 120 121 121 122 123 123 124 124 123 122 122 121 119 118 118 118 118 117 117 117 117 116 115 115 116 117 118 118 117 117
104 104 105 105 106 106 107 107 108 109 109 110 110 111 111 112 113 113 114 114 115 116 116 117 117 118 118 118 117 117 117 116 116 116 115 116 118 118 118 119 119 120 119 119 119 120 120 120 120 120 120 119 119 118 118 118 118 119 120 120 121 122 121 121 120 120 119 117 117 116 115 115 115 114 114 114 113 111 112 114 115 115 114 114 115
100 101 102 102 103 104 105 105 106 107 108 109 109 110 111 111 112 113 113 114 114 115 115 116 116 116 116 116 115 115 114 114 114 115 115 116 117 119 119 119 119 119 119 119 119 119 118 118 118 118 118 117 116 115 115 114 115 115 116 116 117 118 118 118 117 117 116 115 115 114 113 112 112 112 111 111 110 108 108 110 111 111 110 110 110
99 100 100 101 102 103 104 105 106 107 108 109 109 110 111 111 112 112 113 113 113 114 114 114 114 114 114 114 114 114 114 114 114 114 115 115 117 118 118 118 118 118 118 117 117 116 116 116 115 115 114 113 113 112 111 111 111 111 112 112 113 114 114 114 114 114 114 113 113 112 111 110 109 108 108 108 108 106 105 106 108 107 107 106 106
98 99 100 101 102 103 104 106 107 108 108 109 110 110 111 111 111 112 112 112 112 112 112 112 113 113 114 114 115 114 114 114 114 114 114 114 115 116 116 116 116 116 115 114 114 113 113 113 112 112 111 111 110 109 108 108 108 109 109 109 110 111 111 111 111 111 111 111 111 111 110 109 107 106 105 105 105 104 104 104 105 104 104 104 104
98 100 101 102 103 104 105 106 107 108 108 109 109 110 110 110 110 110 110 110 110 110 110 111 112 112 113 114 114 114 114 113 112 112 111 111 111 112 113 113 113 113 113 113 112 112 112 111 111 110 109 109 108 107 106 106 106 106 106 106 107 107 108 108 107 107 108 108 109 109 108 108 107 105 104 103 103 103 103 103 103 102 101 101 102
99 100 101 102 103 104 105 106 107 107 108 108 108 108 108 108 108 108 108 108 109 109 110 110 111 111 111 112 112 111 111 110 110 109 109 109 109 110 111 111 112 112 111 111 111 110 110 109 109 108 107 106 105 104 104 103 103 103 102 102 103 103 104 104 104 104 105 105 106 106 106 106 105 105 103 102 101 101 101 101 100 100 99 99 99
99 100 101 102 103 103 104 105 105 106 106 106 106 106 106 107 107 107 107 108 108 108 108 108 108 108 108 108 108 109 109 109 108 108 108 108 108 108 109 109 109 110 109 109 108 107 107 106 105 105 103 102 101 101 100 100 99 99 99 99 99 99 100 100 100 101 101 101 102 102 102 102 102 102 102 101 99 98 98 98 97 97 96 96 95
98 99 100 101 101 102 102 103 103 103 104 104 105 105 105 106 106 106 106 106 106 105 105 105 105 105 105 106 106 107 107 107 107 107 106 106 106 106 106 106 106 106 106 105 104 104 103 102 101 101 100 99 97 97 96 96 96 97 97 97 97 97 97 97 97 97 98 98 98 98 99 99 99 99 98 98 97 96 96 95 94 94 93 93 92
97 98 98 99 99 100 100 101 101 102 103 103 104 104 104 104 104 104 103 103 103 103 103 103 103 103 104 104 105 105 105 105 105 105 104 104 103 103 102 102 102 102 102 101 100 100 99 98 98 97 97 96 95 94 94 94 94 95 95 95 95 95 94 94 94 94 94 94 94 94 94 94 95 95 95 94 94 93 93 92 91 90 90 90 90
95 96 96 97 98 99 100 100 101 101 102 102 102 102 102 101 101 101 101 101 101 101 101 101 102 102 102 102 103 103 103 103 102 102 101 101 100 99 99 98 98 98 98 97 97 96 96 95 95 95 94 94 93 93 93 92 92 93 93 93 93 93 92 91 91 91 91 91 91 91 91 91 90 90 90 90 90 89 89 89 88 87 86 86 87
94 95 96 97 97 98 98 99 99 99 99 99 100 100 100 99 99 99 99 99 99 99 100 100 100 100 100 99 99 100 100 100 99 98 98 97 96 95 95 95 94 95 94 94 94 93 93 93 93 93 92 92 92 92 92 91 91 91 91 91 91 90 90 89 88 87 88 88 88 87 87 87 87 87 86 86 85 86 86 86 85 84 83 83 84
94 94 95 95 96 96 96 96 97 97 97 98 98 98 98 98 98 97 97 97 97 97 97 97 97 97 97 96 96 96 96 96 96 95 95 94 93 92 91 91 91 92 92 92 91 91 91 90 90 90 90 90 89 89 89 89 89 89 89 89 88 88 87 86 85 85 84 85 85 85 85 85 85 85 84 83 83 83 83 83 83 82 81 81 82
92 93 93 93 93 94 94 95 95 96 96 96 97 97 97 97 96 96 95 95 95 94 94 94 94 93 93 93 92 92 92 92 92 92 91 91 90 89 89 89 89 90 90 89 89 88 88 88 87 87 87 86 86 86 86 86 86 86 86 86 86 86 85 84 83 82 82 81 81 82 82 82 82 83 82 82 81 81 81 81 81 80 80 79 79
90 91 91 92 92 93 93 94 94 95 95 95 95 95 95 94 94 93 93 92 91 91 91 91 91 90 90 90 89 89 89 88 88 88 88 88 88 88 87 87 87 87 87 87 87 86 85 85 85 84 84 83 82 82 82 82 82 81 82 82 83 83 82 82 81 79 78 78 78 78 78 79 79 79 80 79 78 78 79 79 78 77 77 77 77
89 90 90 91 92 92 92 93 93 93 94 93 93 92 92 91 90 90 89 89 88 88 87 88 88 88 87 86 86 86 86 86 85 86 86 86 86 86 86 85 85 85 85 85 85 84 83 82 82 81 80 80 79 79 79 79 79 78 78 78 78 79 79 79 79 78 76 75 75 75 75 75 75 76 76 76 75 75 75 76 76 75 74 73 74
89 90 90 90 91 91 91 91 91 91 91 90 90 89 88 87 87 86 86 86 86 85 85 85 85 85 85 84 83 83 83 83 83 83 84 83 83 83 83 83 83 83 83 83 83 82 81 80 79 78 78 77 76 76 76 76 76 75 75 75 75 75 75 76 76 76 75 73 73 73 73 73 72 73 73 73 72 72 72 72 72 71 71 70 70
88 89 89 89 89 89 89 88 88 87 87 86 86 86 85 85 84 84 84 84 84 83 83 83 83 83 83 82 81 81 81 81 81 81 81 80 80 80 80 80 81 81 81 81 80 80 79 78 76 75 75 74 73 72 72 72 73 73 73 73 73 72 72 73 73 74 73 72 71 70 70 70 70 70 70 70 69 69 69 68 68 68 68 67 67
87 87 87 87 87 86 86 85 85 84 84 83 82 82 82 82 82 82 82 83 83 82 81 81 81 81 81 80 80 80 79 79 78 78 77 77 77 77 77 77 77 78 78 78 77 77 76 75 73 72 72 71 71 70 69 69 70 70 70 71 71 71 70 70 71 71 71 70 68 67 67 67 66 66 66 66 66 65 65 65 64 64 64 64 64
85 85 85 84 84 84 83 83 82 82 81 81 80 80 80 80 80 81 81 81 81 82 81 80 80 79 79 79 79 78 77 77 76 76 75 74 74 74 74 73 74 74 75 75 75 74 74 72 71 69 69 68 68 68 67 67 67 67 67 68 69 68 68 68 67 68 68 67 66 65 64 63 63 63 62 62 62 62 62 62 61 60 60 60 60
83 82 82 82 82 81 81 81 80 80 80 79 79 79 79 79 79 79 79 79 79 79 79 79 79 79 79 79 78 77 77 76 75 74 74 73 72 72 71 71 70 71 71 71 72 72 71 70 69 67 65 65 65 65 65 65 64 64 65 65 65 65 65 65 64 64 65 64 63 62 61 61 60 59 59 59 58 58 58 59 58 58 57 57 57
80 80 80 80 80 79 79 79 79 79 79 78 78 78 78 78 78 78 77 77 76 76 76 76 77 77 77 77 77 76 76 75 75 74 73 72 71 70 69 68 68 68 68 68 68 69 69 68 67 65 63 62 62 62 62 62 62 62 62 62 63 63 62 62 62 62 62 61 61 60 59 58 58 57 56 56 56 56 55 56 56 55 54 54 54
78 78 78 78 78 78 78 78 77 77 77 77 77 77 77 76 76 76 75 75 74 74 74 74 74 74 74 74 74 74 74 74 74 73 72 71 70 69 68 67 66 65 65 66 66 66 66 66 65 64 61 60 59 59 59 60 60 59 59 60 60 61 60 60 60 59 59 59 58 57 57 56 56 55 54 53 53 53 53 53 53 52 52 51 51
77 76 76 76 76 76 76 76 76 76 75 75 75 75 75 74 74 73 73 72 72 72 72 72 72 71 71 70 70 71 71 71 71 71 71 70 70 68 67 66 65 64 64 64 64 64 64 64 63 62 60 58 57 57 57 57 58 58 58 57 58 59 58 58 57 57 57 57 55 54 54 53 53 53 52 51 51 50 50 50 50 49 49 48 48
75 75 75 75 74 75 74 74 74 74 74 73 73 73 72 72 72 71 71 71 71 70 70 70 69 69 69 68 68 67 67 67 68 68 68 68 68 67 66 65 64 63 62 62 62 62 63 63 62 61 59 57 55 55 55 56 56 56 56 56 56 56 56 56 55 54 54 54 53 52 50 50 50 50 49 49 48 48 48 47 47 47 46 46 45
73 73 73 73 73 73 73 72 72 72 71 71 71 70 70 69 69 69 69 69 69 68 68 67 67 67 67 67 66 65 65 64 64 64 64 64 64 64 64 63 62 61 60 59 59 60 60 61 61 60 58 55 54 53 53 54 54 55 55 54 54 54 54 54 53 52 51 51 50 49 48 47 47 47 47 46 46 45 45 45 44 44 44 43 43
72 71 71 71 71 71 70 70 70 70 69 69 68 68 68 67 67 67 67 67 67 66 66 66 65 65 65 65 65 64 63 62 62 61 61 61 60 60 60 60 59 58 57 57 57 57 57 58 59 58 56 54 52 52 51 51 52 52 53 52 52 52 52 52 51 49 48 47 47 46 45 44 44 44 44 44 44 43 43 42 42 42 41 41 40
69 69 69 68 68 68 68 67 67 67 67 67 67 66 66 66 66 66 66 65 65 65 64 64 63 63 63 63 63 62 61 61 60 59 58 58 57 57 57 56 56 55 55 54 54 54 55 55 56 56 54 53 51 50 50 50 50 50 50 50 50 50 50 50 49 47 46 45 44 43 43 42 41 41 41 41 41 41 41 40 39 39 38 38 37
67 67 67 66 66 66 65 65 65 65 65 65 65 65 65 65 65 64 63 63 63 62 62 62 62 61 61 61 61 61 60 59 59 58 57 56 55 55 54 53 52 52 52 52 52 52 52 52 53 53 52 51 50 49 49 48 48 48 48 48 48 48 48 47 46 45 44 43 42 41 41 40 39 39 39 39 40 39 39 38 37 36 35 35 34
65 65 65 64 64 64 64 63 63 63 63 64 64 64 64 64 63 62 62 61 61 60 60 60 60 60 59 59 59 59 59 58 57 56 56 55 54 53 53 51 50 50 49 49 50 50 51 51 51 51 50 49 48 48 47 47 47 46 46 46 46 46 46 45 44 43 42 41 40 39 39 38 37 37 37 37 38 37 37 36 35 34 32 32 31
64 64 63 63 63 62 62 62 62 62 62 62 62 62 62 62 61 60 60 60 59 59 58 58 58 58 57 57 57 57 57 56 55 55 54 53 53 52 51 50 49 48 48 47 48 48 49 50 50 49 48 47 47 47 46 45 45 45 44 44 44 44 43 43 42 41 40 39 38 37 37 36 36 36 36 36 36 35 35 34 33 32 30 29 29
63 62 62 62 61 61 61 60 60 60 60 60 60 60 60 60 59 59 59 58 58 57 57 56 56 56 56 56 56 55 55 54 54 54 53 52 51 50 50 48 47 47 47 46 46 47 48 48 48 47 46 45 45 45 44 44 43 43 43 43 42 42 41 41 40 39 38 38 37 36 35 35 35 34 34 34 34 33 33 32 31 30 29 28 28
62 61 61 60 60 60 59 59 59 59 59 59 58 58 58 58 58 58 57 57 56 56 55 55 54 54 54 54 54 54 53 53 52 52 51 50 50 49 48 47 46 46 45 45 45 45 46 47 47 45 44 43 43 43 42 42 42 42 41 41 40 40 39 39 38 36 36 36 36 35 35 34 33 33 32 32 31 31 30 29 29 28 27 27 26
61 60 60 59 59 58 58 58 58 58 57 57 56 56 57 57 57 56 56 55 55 54 54 54 53 53 53 52 52 52 52 52 51 50 49 48 48 47 47 46 45 45 44 44 44 44 45 45 44 43 42 41 41 41 41 41 40 40 39 39 38 38 37 37 36 35 34 33 33 34 33 33 32 31 30 30 29 28 28 27 27 26 26 25 25
59 59 58 58 58 57 57 57 56 56 56 55 55 55 55 55 55 55 54 54 54 53 53 53 52 52 52 52 51 51 51 51 50 49 48 47 46 46 45 45 44 44 43 43 43 43 43 43 42 41 40 39 39 39 39 39 39 38 37 37 36 36 36 35 34 33 32 31 31 31 31 30 30 29 28 27 26 26 26 26 25 25 24 24 24
58 57 57 57 56 56 56 55 55 54 54 54 54 54 53 53 53 53 53 53 53 53 52 52 52 52 52 51 51 50 50 50 49 47 46 45 45 45 45 44 43 43 42 42 41 41 41 41 40 38 38 38 38 37 37 37 37 36 35 35 34 34 34 33 32 31 31 30 29 28 28 27 27 26 25 24 24 24 24 24 24 24 23 22 22
56 56 55 55 55 55 54 54 54 53 53 53 52 52 52 51 51 51 51 51 51 52 52 52 51 51 51 51 50 49 49 48 47 46 45 45 44 44 44 43 42 42 41 41 40 40 39 38 37 36 36 36 36 35 35 35 35 34 33 32 32 32 31 31 30 30 29 28 26 25 25 25 24 23 23 22 22 22 23 23 23 22 21 20 20
Wind_Direction
262 263 264 265 266 266 267 268 269 269 270 271 271 272 273 273 274 274 275 275 275 275 275 275 275 275 275 276 276 276 276 276 276 277 277 277 277 277 277 277 277 277 277 277 277 277 277 277 277 277 277 277 277 277 277 277 277 276 276 275 275 275 274 274 273 273 273 273 272 271 270 270 270 269 269 269 269 269 269 269 269 268 268 268 268
261 262 263 264 265 265 266 267 268 269 269 270 271 271 272 273 273 273 274 274 275 275 275 275 275 275 276 276 276 276 276 276 277 277 277 277 277 277 277 278 278 278 278 278 278 278 277 277 278 278 278 278 278 277 277 277 277 276 276 276 275 275 274 274 273 273 273 273 273 272 271 270 270 270 269 269 269 268 269 269 268 268 268 268 268
261 261 262 263 264 265 266 266 267 268 269 269 270 271 271 272 272 273 274 274 274 275 275 275 276 276 276 276 276 277 277 277 277 277 277 277 278 278 278 278 278 278 278 278 278 278 278 278 278 278 278 278 278 278 277 277 277 276 276 276 276 276 275 275 274 274 273 273 273 273 272 271 271 270 270 269 269 268 268 268 268 268 268 268 268
260 261 262 262 263 264 265 266 267 267 268 269 269 270 271 272 272 273 274 274 274 275 275 276 276 276 276 277 277 277 277 277 278 278 278 278 278 278 279 279 279 279 279 278 278 278 278 278 278 278 278 278 278 277 277 277 277 277 276 276 276 276 276 275 275 275 274 274 274 273 273 272 272 271 271 270 269 269 268 268 268 268 268 268 268
260 261 262 263 263 264 265 266 267 268 268 269 270 271 271 272 273 273 274 274 275 275 276 276 276 277 277 277 277 278 278 278 278 279 279 279 279 279 279 279 279 279 279 278 278 279 279 279 278 278 278 278 278 277 277 277 277 277 276 276 276 276 276 276 275 275 275 274 274 273 273 273 272 272 271 271 270 270 270 269 269 268 268 268 268
262 262 263 264 265 265 266 267 268 269 269 270 271 271 272 273 273 274 274 275 275 276 276 276 277 277 277 278 278 278 279 279 279 279 279 279 279 279 279 279 279 279 279 279 279 279 279 279 279 279 278 278 278 278 278 278 277 277 277 277 277 277 276 276 276 276 275 275 274 274 273 273 273 272 272 272 271 271 270 270 270 269 269 268 268
263 264 264 265 266 266 267 268 269 269 270 270 271 271 272 273 273 274 274 275 275 276 276 277 277 277 278 278 278 279 279 279 279 279 279 280 280 280 280 280 280 280 280 280 280 280 280 280 280 279 279 279 279 279 279 279 279 279 278 278 278 278 278 277 277 277 276 276 275 275 274 274 274 273 273 273 273 272 272 271 271 270 270 270 269
264 264 265 266 266 267 268 268 269 269 270 270 271 272 272 273 273 274 275 275 276 276 277 277 278 278 278 278 278 279 279 279 279 280 280 280 280 280 280 280 280 280 280 281 281 280 280 280 280 280 280 280 280 280 280 280 280 280 280 279 279 279 278 278 278 277 277 277 276 276 276 275 275 275 274 274 274 273 273 273 272 272 271 271 271
264 265 265 266 267 267 268 268 269 270 270 271 271 272 273 273 274 274 275 275 276 276 277 277 277 278 278 278 278 279 279 279 280 280 280 280 280 280 280 280 280 280 280 280 280 280 280 280 280 280 280 280 280 280 280 280 280 280 280 280 279 279 279 278 278 278 278 278 278 277 277 277 276 275 275 275 274 274 274 273 273 273 272 272 272
264 265 266 266 267 267 268 268 269 270 270 271 272 272 273 273 274 274 275 275 276 276 277 277 277 278 278 278 278 279 279 279 279 279 279 279 279 279 279 279 279 279 279 280 280 280 280 280 280 280 280 280 280 280 280 280 280 279 279 279 279 278 278 278 278 278 278 278 278 278 277 277 276 276 275 275 275 275 274 274 274 273 273 272 272
265 265 266 266 267 268 268 269 270 270 271 271 272 272 273 273 274 274 275 275 276 276 276 277 277 277 277 277 278 278 278 278 278 278 278 278 278 278 278 279 279 279 279 279 279 279 280 280 280 280 279 279 280 280 280 280 279 279 279 279 278 278 278 278 278 278 278 278 278 277 277 277 276 276 276 276 276 275 275 275 274 274 273 273 272
266 266 267 267 268 268 269 270 270 271 271 272 272 273 273 274 274 274 275 275 275 275 276 276 276 276 277 277 277 277 277 278 278 278 278 278 279 278 279 279 279 279 279 280 280 280 280 280 280 280 280 280 280 280 280 280 279 279 279 279 279 278 278 278 278 278 277 277 277 277 277 277 277 276 276 276 276 276 276 275 275 274 274 273 272
267 268 268 269 269 270 270 271 271 272 272 273 273 273 273 274 274 274 275 275 275 275 276 276 276 277 277 277 278 278 278 279 279 279 279 279 280 279 279 280 280 280 280 280 280 280 280 280 280 280 280 280 280 280 280 280 280 280 280 280 279 279 279 279 278 278 277 277 277 277 277 277 276 276 276 276 276 276 276 276 275 275 274 273 273
269 270 270 270 271 271 271 272 272 272 272 273 273 273 274 274 275 275 275 276 276 277 277 277 278 278 278 279 279 279 280 280 280 280 281 281 281 280 280 281 281 280 280 280 281 281 281 281 281 281 281 281 281 281 281 281 281 281 281 281 280 280 280 280 279 279 279 278 278 277 277 277 277 276 276 276 276 276 275 275 275 275 274 274 273
270 270 270 271 271 272 272 272 272 273 273 273 274 274 275 275 276 276 277 277 278 278 279 279 279 280 280 280 280 281 281 281 281 281 281 281 281 281 281 281 281 281 281 281 281 281 281 281 281 281 281 281 282 282 282 282 282 282 281 281 281 281 281 281 280 280 280 279 279 278 278 278 277 277 276 276 276 276 276 275 275 274 274 274 274
271 271 272 272 272 273 273 274 274 274 275 275 276 276 277 277 278 278 278 279 279 280 280 280 280 281 281 281 281 281 282 282 282 282 282 282 282 282 282 282 282 282 282 282 282 282 282 282 282 282 282 282 282 282 281 281 281 281 281 281 281 281 281 281 281 280 280 280 280 279 278 278 278 277 277 276 276 276 275 275 274 274 274 274 273
273 273 274 274 275 275 275 276 276 276 277 277 278 278 278 279 279 280 280 280 281 281 281 281 282 282 282 282 282 282 282 283 283 283 283 283 283 283 283 283 283 283 283 282 282 282 282 282 282 282 281 281 281 281 281 281 281 281 281 281 281 281 281 281 281 281 281 280 280 279 279 278 278 278 277 277 276 276 275 274 274 273 273 273 273
275 275 276 276 276 277 277 277 278 278 278 279 279 279 280 280 280 281 281 281 282 282 282 282 282 283 283 283 283 283 283 283 283 283 283 283 283 283 283 283 283 283 283 282 282 282 282 282 282 282 282 281 281 281 281 281 281 281 281 281 281 281 281 281 281 281 281 281 281 280 280 279 279 278 278 278 277 277 276 275 275 274 274 273 273
276 277 277 277 278 278 278 278 279 279 279 280 280 281 281 281 281 282 282 282 282 282 283 283 283 283 283 283 284 284 284 284 284 283 283 283 283 283 283 283 283 283 283 283 283 283 283 282 282 282 282 282 282 282 282 282 282 281 281 281 281 281 281 282 282 282 282 282 282 281 281 280 280 279 279 279 278 278 277 276 276 275 275 274 274
277 277 278 278 278 279 279 279 280 280 280 281 281 281 281 282 282 282 282 282 282 283 283 283 283 283 284 284 284 284 284 284 284 283 283 283 283 283 283 284 284 284 284 284 284 284 284 284 284 284 284 284 283 283 283 282 282 282 282 282 281 282 282 282 282 282 282 282 282 282 282 282 281 281 280 279 279 278 278 277 277 276 276 275 274
277 278 278 279 279 279 280 280 280 281 281 281 281 281 281 282 282 282 282 282 283 283 283 283 284 284 284 284 284 284 284 284 284 284 284 284 284 285 285 285 285 285 285 285 285 285 285 285 285 285 284 284 284 284 283 283 282 282 282 282 281 282 282 282 282 282 282 282 282 282 282 282 282 281 281 280 279 279 278 278 277 277 276 275 275
278 278 279 279 280 280 280 280 280 281 281 281 281 282 282 282 282 283 283 283 283 283 284 284 284 284 284 284 285 285 285 285 285 285 285 285 286 286 286 286 286 286 286 286 286 286 286 286 286 286 285 285 285 285 284 284 284 283 283 282 282 282 282 282 282 282 282 282 282 282 282 282 282 282 281 281 280 280 279 278 278 277 277 276 275
279 279 279 280 280 280 280 280 281 281 281 282 282 282 282 283 283 283 283 284 284 284 284 284 285 285 285 285 286 286 286 286 286 286 286 286 286 286 286 287 287 287 287 287 287 287 287 287 287 286 286 286 286 285 285 285 285 284 284 284 283 283 283 283 283 282 282 282 282 282 282 282 282 282 282 282 281 281 280 280 279 279 278 277 276
279 280 280 280 280 281 281 281 282 282 282 282 283 283 283 283 284 284 284 285 285 285 285 286 286 286 286 286 286 286 286 287 287 287 287 287 287 287 287 287 287 287 288 288 288 288 288 288 287 287 287 287 287 286 286 286 286 285 285 285 285 284 284 284 284 283 283 283 283 283 282 282 282 282 282 282 282 282 281 280 280 279 279 278 277
280 281 281 281 281 282 282 282 282 283 283 283 283 283 284 284 284 285 285 286 286 286 286 286 286 286 286 286 287 287 287 287 288 288 288 288 288 288 288 288 288 288 288 288 288 288 288 288 288 288 288 288 288 288 287 287 287 286 286 286 286 285 285 285 285 284 284 284 283 283 283 282 282 282 282 282 282 282 281 281 280 279 279 278 277
281 282 282 282 282 282 283 283 283 283 283 284 284 284 285 285 286 286 286 286 286 286 286 286 287 287 287 287 287 288 288 288 288 289 289 289 289 289 289 289 289 289 288 288 288 288 288 288 289 289 289 289 289 289 288 288 288 287 287 287 287 286 286 286 286 286 285 285 285 284 284 284 283 283 283 283 283 282 282 282 281 280 280 279 278
282 282 282 283 283 283 283 283 284 284 285 285 285 286 286 286 286 287 287 287 287 287 287 287 287 288 288 288 288 288 289 289 289 289 289 289 289 289 289 289 289 288 288 288 288 288 288 289 289 289 289 289 289 289 289 289 289 289 288 288 288 288 287 287 287 287 286 286 286 286 285 285 285 285 285 284 284 283 283 282 282 282 281 280 279
283 283 283 283 284 284 284 285 285 285 286 286 286 287 287 287 287 288 288 288 288 288 288 288 288 288 288 289 289 289 289 289 289 289 289 289 289 289 289 289 289 288 288 288 288 288 289 289 289 289 289 289 289 289 289 289 289 289 289 289 288 288 288 287 287 287 286 286 286 286 285 285 285 285 285 285 284 284 283 283 282 282 282 281 280
284 284 284 285 285 285 285 286 286 286 287 287 287 288 288 288 288 289 288 288 288 288 288 289 289 289 289 289 289 289 289 289 289 289 289 289 289 289 289 289 289 289 289 289 289 289 288 288 288 288 288 288 288 288 288 288 288 288 288 288 288 288 288 287 287 287 286 286 285 285 285 285 285 285 284 284 284 283 283 283 282 282 281 281 280
285 285 285 286 286 286 286 287 287 287 288 288 288 289 289 289 289 289 289 289 289 289 289 289 289 289 289 289 289 289 289 289 289 289 290 290 290 290 290 290 290 289 289 289 289 289 289 289 289 289 289 289 289 289 289 288 288 288 287 287 287 287 288 288 288 288 287 287 286 286 285 285 285 284 284 284 284 283 283 282 282 282 281 280 280
286 286 286 286 287 287 287 288 288 288 289 289 289 290 290 290 289 289 289 289 290 290 290 290 290 290 290 289 289 289 289 290 290 290 290 290 290 290 290 290 290 290 290 290 290 290 290 290 290 290 290 290 290 290 289 289 289 289 289 288 288 288 289 289 289 289 288 288 288 287 287 286 286 285 284 284 284 283 283 282 282 282 281 280 280
287 287 287 288 288 288 288 289 289 289 290 290 290 290 290 290 290 290 290 290 290 290 290 290 290 290 290 290 290 290 290 290 290 290 290 290 290 290 290 290 291 290 291 291 291 291 291 291 291 291 291 291 290 290 290 290 290 290 290 290 290 289 289 289 289 289 289 289 288 288 287 287 286 286 285 285 284 284 283 283 282 282 281 281 280
288 288 288 288 289 289 289 289 290 290 290 290 291 291 291 291 291 291 291 291 291 291 291 291 290 290 290 290 290 290 290 290 290 290 290 290 290 290 290 290 290 290 290 290 290 291 291 291 291 292 292 292 292 292 291 291 291 291 291 291 291 290 290 290 289 289 289 289 288 288 287 287 286 286 285 285 285 284 284 283 283 282 282 281 281
289 289 289 289 289 290 290 290 291 291 291 291 291 291 291 291 291 291 292 292 292 292 292 292 292 292 291 291 291 291 291 291 290 290 290 290 290 290 290 290 290 290 291 291 291 291 292 292 292 293 293 293 293 293 292 292 291 291 291 290 290 290 290 290 290 290 289 289 289 289 288 288 287 287 286 286 285 285 285 284 284 283 283 282 282
289 290 290 290 290 291 291 291 291 292 292 292 292 292 292 291 291 291 292 292 292 293 293 293 293 293 293 293 293 293 293 292 292 292 292 291 291 291 291 291 291 291 291 292 292 292 293 293 293 293 293 293 293 292 292 291 291 291 290 290 290 290 290 290 290 290 290 290 290 290 290 289 289 288 288 287 287 286 286 285 285 284 284 283 283
290 290 291 291 291 291 291 291 291 292 292 292 292 292 291 291 291 291 291 292 292 292 293 293 294 294 295 295 295 294 294 294 294 293 293 293 292 292 292 292 292 292 292 292 292 293 293 293 293 294 293 293 293 292 292 292 292 291 291 291 291 291 291 292 291 291 291 291 291 291 291 291 290 290 289 289 288 287 287 287 286 286 285 285 284
291 291 291 291 291 291 291 291 291 291 291 291 291 291 291 291 291 291 292 292 293 293 293 294 294 294 294 294 295 295 295 295 295 294 294 294 293 293 293 293 293 293 293 293 293 293 293 294 294 294 294 294 294 294 294 294 293 293 293 293 293 293 293 293 293 292 292 292 292 292 292 292 292 291 291 290 289 289 288 288 287 287 286 286 285
292 291 291 291 291 291 291 291 291 291 291 291 291 291 291 291 292 292 292 293 293 294 294 294 294 294 294 293 294 294 294 294 294 295 295 295 295 295 295 295 295 294 294 294 294 295 295 295 295 295 296 296 296 296 296 296 295 295 295 294 294 294 294 293 293 293 293 293 293 293 293 293 293 292 292 292 291 290 289 289 288 288 287 287 286
292 292 292 291 291 291 291 291 290 290 290 290 291 291 291 292 292 293 293 294 294 294 294 294 294 293 293 293 293 292 292 293 293 294 294 295 295 295 296 295 296 295 296 296 296 296 296 296 296 296 297 298 298 297 297 297 297 296 296 295 295 294 294 294 294 294 294 295 295 295 295 294 294 293 293 293 292 291 290 290 289 288 288 288 287
292 292 292 291 291 291 291 291 291 291 291 291 291 291 292 292 293 294 294 294 294 294 294 294 294 293 293 293 293 292 292 292 292 293 293 293 294 294 295 295 296 296 296 296 296 296 296 296 297 297 298 299 299 298 298 298 297 297 296 296 295 295 295 295 295 295 296 296 296 296 296 295 295 294 294 293 292 291 291 290 289 289 289 289 288
293 292 292 292 291 291 291 291 291 291 291 291 292 292 293 293 294 295 295 295 295 295 294 294 294 294 294 293 293 293 293 293 292 293 293 293 293 294 294 295 295 296 296 296 296 296 296 296 297 297 298 299 299 299 299 298 298 297 297 296 296 296 296 296 296 297 297 297 298 298 297 296 295 294 293 293 292 292 291 291 290 290 290 290 290
293 293 293 292 292 292 292 293 293 293 293 293 293 294 294 295 295 295 295 295 295 295 295 295 295 294 294 294 294 294 294 293 293 293 293 294 294 294 294 295 295 296 296 296 296 296 296 296 296 297 299 300 300 300 299 298 298 297 297 297 297 297 297 297 298 298 299 299 299 298 298 297 296 295 294 293 293 293 293 292 292 292 292 292 292
294 294 294 294 294 294 294 294 294 294 294 294 295 295 296 296 296 296 296 296 296 296 296 295 295 295 295 295 295 295 295 295 295 295 295 295 295 295 296 296 296 297 297 297 296 296 296 296 297 298 299 300 301 300 299 299 298 298 298 298 298 298 298 299 299 300 301 300 300 300 299 298 297 296 295 294 294 294 294 294 295 294 294 293 293
295 295 295 295 295 295 295 294 294 295 295 295 296 296 296 296 296 296 296 296 296 296 296 296 296 296 296 296 296 296 297 297 297 297 297 297 297 297 298 298 298 298 298 297 297 297 297 297 297 298 300 301 301 301 300 300 299 299 299 299 299 299 299 300 301 302 302 302 301 301 300 300 299 298 297 296 296 296 296 296 296 296 295 294 293
296 296 296 296 296 295 295 295 295 295 296 296 296 297 297 297 297 297 297 297 297 296 296 296 296 297 297 297 297 297 297 298 298 298 298 298 299 299 299 300 300 299 299 299 298 298 298 298 298 300 301 302 302 301 301 301 300 301 301 301 300 301 301 302 303 303 303 303 303 302 302 301 300 299 298 297 296 296 297 297 297 297 296 294 292
297 297 297 297 296 296 296 296 296 296 297 297 297 297 297 297 297 297 297 297 297 297 297 297 297 297 297 297 297 298 298 298 298 299 299 300 300 300 300 301 301 301 300 299 299 298 298 299 299 301 303 303 302 302 302 302 301 302 302 302 302 302 303 303 304 304 304 304 304 303 302 301 300 299 298 297 297 297 298 298 298 297 296 294 292
298 298 297 297 297 297 297 297 297 297 297 297 298 298 298 298 298 298 298 298 297 298 298 298 298 298 298 298 298 298 299 299 299 299 300 301 301 301 302 302 302 301 301 300 299 299 299 299 301 303 304 304 303 302 302 302 302 302 303 303 303 303 304 304 305 305 305 305 304 303 302 301 300 299 298 298 298 298 298 298 298 297 296 294 292
298 298 298 298 297 298 298 298 298 298 298 299 299 299 299 299 299 299 299 299 299 299 299 298 299 299 299 299 299 299 299 299 300 300 301 302 302 302 303 303 303 302 301 301 300 300 300 300 302 304 305 304 303 303 303 303 303 303 304 304 304 304 304 305 305 306 306 305 304 303 302 301 300 300 299 299 299 299 299 299 298 297 296 295 294
298 298 298 298 298 298 298 299 299 299 299 300 300 300 299 299 299 299 300 300 300 300 300 300 300 300 300 300 301 300 300 300 301 302 302 303 303 304 304 304 303 303 302 302 301 301 301 302 304 305 305 303 303 303 303 303 303 304 304 304 304 304 305 305 306 307 307 306 303 302 300 300 300 300 300 300 301 301 300 299 299 298 298 298 297
298 298 298 299 299 299 299 299 300 300 300 300 300 300 299 299 300 300 301 301 301 301 301 301 301 302 302 302 301 301 301 301 302 303 304 304 305 305 305 304 304 303 303 302 302 301 302 303 305 305 304 303 303 303 303 303 303 304 304 305 305 305 306 307 308 308 308 305 303 301 300 300 301 302 303 304 303 303 302 302 302 302 302 301 300
299 299 299 299 299 300 300 300 301 301 301 300 300 300 300 300 301 301 301 301 301 301 301 301 302 302 302 301 302 302 302 303 303 304 305 306 306 305 305 305 304 304 303 303 302 302 303 305 306 305 304 303 303 304 304 303 303 304 305 306 307 307 308 309 309 309 308 306 305 304 303 304 306 307 308 308 307 306 306 306 305 305 304 303 301